Погода в Вифлееме

Палестина     31°42′16″N   35°12′13″E
темп.,
°C
ветер,
м/с
пор.,
м/с
влажн.,
%
обл.,
%
осадки,
мм/ч
давл.,
гПа
погр.,
м
14 мая, пт
пт1400:00+17зсз33590 0.0 101467
03:00+16з22490 0.0 101416
06:00+16зсз22540 0.0 101514
09:00+21с12320 0.0 1015433
12:00+26с23230 0.0 10141003
15:00+28сз65250 0.0 10131356
18:00+23сз910370 0.0 1013432
21:00+19зсз46540 0.0 1014177
15 мая, сб
сб1500:00+18зсз33410 0.0 101543
03:00+17зсз32510 0.0 101424
06:00+16зсз11510 0.0 101411
09:00+22в01270 0.0 1014398
12:00+27с12180 0.0 1013990
15:00+28сз65240 0.0 10111240
18:00+24зсз89300 0.0 1011420
21:00+20зсз34410 0.0 101273
16 мая, вс
вс1600:00+18зсз33520 0.0 101261
03:00+17з22450 0.0 101113
06:00+16з11430 0.0 101111
09:00+22ююз01230 0.0 1011408
12:00+28ссз231610 0.0 10101192
15:00+29сз651622 0.0 10091452
18:00+25сз892220 0.0 1009482
21:00+21зсз33340 0.0 101058
17 мая, пн
пн1700:00+21зсз11250 0.0 100911
03:00+20зсз32255 0.0 100917
06:00+18зсз22309 0.0 100911
09:00+23зюз0123100 0.0 1011528
12:00+27зсз44230 0.0 10101326
15:00+26зсз98330 0.0 10091023
18:00+21зсз1113580 0.0 1010498
21:00+17зсз47650 0.0 1012276
18 мая, вт
вт1800:00+16зсз34734 0.0 1013131
03:00+15зсз32760 0.0 101240
06:00+15зсз22830 0.0 101325
09:00+19св11560 0.0 1014516
12:00+25всв22343 0.0 10131011
15:00+28ссз34280 0.0 10101269
18:00+24сз76470 0.0 1011592
21:00+19зсз34660 0.0 1012152